| time (UTC) | temp F | wind direction | speed MPH | gust MPH | rain 1hr in | rain 24hr in | rain mn in | humidity % | barometer mb |
| 20260504050016 | 53 | 258 | 2.0 | 6.0 | 0.00 | 0.03 | 0.00 | 79 | 1011.8 |
| 20260504045036 | 53 | 263 | 3.0 | 5.0 | 0.00 | 0.03 | 0.00 | 79 | 1011.8 |
| 20260504044016 | 53 | 269 | 2.0 | 5.0 | 0.00 | 0.03 | 0.00 | 79 | 1011.8 |
| 20260504043016 | 53 | 272 | 2.0 | 5.0 | 0.00 | 0.03 | 0.00 | 78 | 1011.8 |
| 20260504042016 | 53 | 269 | 2.0 | 5.0 | 0.00 | 0.03 | 0.00 | 77 | 1011.8 |
| 20260504041016 | 54 | 270 | 2.0 | 4.0 | 0.00 | 0.03 | 0.00 | 77 | 1012.0 |
| 20260504040017 | 54 | 264 | 2.0 | 5.0 | 0.00 | 0.03 | 0.00 | 77 | 1012.1 |
| 20260504035016 | 54 | 266 | 2.0 | 4.0 | 0.00 | 0.03 | 0.00 | 76 | 1012.1 |
| 20260504034016 | 54 | 266 | 2.0 | 4.0 | 0.00 | 0.03 | 0.00 | 76 | 1012.0 |
| 20260504033016 | 54 | 245 | 2.0 | 4.0 | 0.00 | 0.03 | 0.00 | 75 | 1012.1 |
| 20260504032017 | 54 | 213 | 2.0 | 5.0 | 0.00 | 0.03 | 0.00 | 75 | 1012.1 |
| 20260504031016 | 55 | 239 | 2.0 | 4.0 | 0.00 | 0.03 | 0.00 | 74 | 1012.1 |
| 20260504030017 | 55 | 260 | 2.0 | 5.0 | 0.00 | 0.03 | 0.00 | 74 | 1012.2 |
| 20260504025036 | 55 | 266 | 1.0 | 4.0 | 0.00 | 0.03 | 0.00 | 74 | 1012.1 |
| 20260504024036 | 55 | 264 | 2.0 | 3.0 | 0.00 | 0.03 | 0.00 | 74 | 1012.2 |
| 20260504023036 | 55 | 271 | 2.0 | 3.0 | 0.00 | 0.03 | 0.00 | 73 | 1012.2 |
| 20260504022016 | 55 | 269 | 2.0 | 4.0 | 0.00 | 0.03 | 0.00 | 73 | 1012.2 |
| 20260504021016 | 56 | 251 | 1.0 | 3.0 | 0.00 | 0.03 | 0.00 | 73 | 1012.3 |
| 20260504020016 | 56 | 243 | 2.0 | 5.0 | 0.00 | 0.03 | 0.00 | 72 | 1012.2 |
| 20260504015016 | 56 | 244 | 1.0 | 5.0 | 0.00 | 0.03 | 0.00 | 72 | 1012.3 |
| 20260504014016 | 57 | 261 | 1.0 | 4.0 | 0.00 | 0.03 | 0.00 | 71 | 1012.5 |
| 20260504013016 | 57 | 257 | 2.0 | 4.0 | 0.00 | 0.03 | 0.00 | 70 | 1012.5 |
| 20260504012016 | 58 | 266 | 1.0 | 6.0 | 0.00 | 0.03 | 0.00 | 69 | 1012.6 |
| 20260504011016 | 58 | 269 | 2.0 | 5.0 | 0.00 | 0.03 | 0.00 | 69 | 1012.6 |
| 20260504010037 | 58 | 243 | 1.0 | 3.0 | 0.00 | 0.03 | 0.00 | 68 | 1012.6 |
| 20260504005016 | 58 | 261 | 1.0 | 2.0 | 0.00 | 0.03 | 0.00 | 68 | 1012.6 |
| 20260504004016 | 58 | 262 | 1.0 | 3.0 | 0.00 | 0.03 | 0.00 | 67 | 1012.7 |
| 20260504003016 | 58 | 264 | 1.0 | 2.0 | 0.00 | 0.03 | 0.00 | 67 | 1012.7 |
| 20260504002016 | 59 | 274 | 1.0 | 3.0 | 0.00 | 0.03 | 0.00 | 67 | 1012.7 |
| 20260504001016 | 59 | 267 | 1.0 | 4.0 | 0.00 | 0.03 | 0.00 | 66 | 1012.8 |
| 20260504000017 | 59 | 259 | 2.0 | 4.0 | 0.00 | 0.03 | 0.00 | 66 | 1012.8 |
| 20260503235016 | 59 | 234 | 1.0 | 4.0 | 0.00 | 0.03 | 0.03 | 66 | 1012.9 |
| 20260503234016 | 60 | 266 | 2.0 | 4.0 | 0.00 | 0.03 | 0.03 | 65 | 1013.1 |
| 20260503233016 | 60 | 255 | 2.0 | 4.0 | 0.00 | 0.03 | 0.03 | 65 | 1013.2 |
| 20260503232016 | 60 | 240 | 2.0 | 4.0 | 0.00 | 0.03 | 0.03 | 65 | 1013.2 |
| 20260503231016 | 60 | 239 | 1.0 | 4.0 | 0.00 | 0.03 | 0.03 | 64 | 1013.1 |
| 20260503230016 | 60 | 249 | 2.0 | 4.0 | 0.00 | 0.03 | 0.03 | 64 | 1013.1 |
| 20260503225036 | 60 | 246 | 2.0 | 4.0 | 0.00 | 0.03 | 0.03 | 64 | 1013.1 |
| 20260503224036 | 60 | 252 | 1.0 | 3.0 | 0.00 | 0.06 | 0.03 | 64 | 1013.0 |
| 20260503223016 | 60 | 244 | 1.0 | 3.0 | 0.00 | 0.06 | 0.03 | 65 | 1013.0 |
| 20260503222016 | 60 | 229 | 2.0 | 3.0 | 0.00 | 0.06 | 0.03 | 64 | 1013.1 |
| 20260503221016 | 60 | 240 | 1.0 | 4.0 | 0.00 | 0.06 | 0.03 | 64 | 1012.9 |
| 20260503220016 | 61 | 261 | 2.0 | 4.0 | 0.00 | 0.06 | 0.03 | 63 | 1013.1 |
| 20260503215016 | 61 | 265 | 1.0 | 3.0 | 0.00 | 0.06 | 0.03 | 63 | 1013.1 |
| 20260503214016 | 61 | 253 | 1.0 | 3.0 | 0.00 | 0.06 | 0.03 | 63 | 1012.9 |
| 20260503213016 | 62 | 265 | 2.0 | 3.0 | 0.00 | 0.06 | 0.03 | 61 | 1012.8 |
| 20260503212016 | 62 | 258 | 2.0 | 5.0 | 0.00 | 0.06 | 0.03 | 58 | 1012.8 |
| 20260503211016 | 62 | 265 | 1.0 | 3.0 | 0.00 | 0.06 | 0.03 | 58 | 1012.7 |
| 20260503210036 | 62 | 263 | 2.0 | 5.0 | 0.00 | 0.06 | 0.03 | 59 | 1012.5 |
| 20260503205016 | 62 | 265 | 2.0 | 4.0 | 0.00 | 0.06 | 0.03 | 59 | 1012.4 |
| 20260503204016 | 63 | 268 | 3.0 | 5.0 | 0.00 | 0.06 | 0.03 | 60 | 1012.4 |
| 20260503203016 | 63 | 281 | 1.0 | 4.0 | 0.00 | 0.06 | 0.03 | 60 | 1012.2 |
| 20260503202016 | 63 | 277 | 2.0 | 6.0 | 0.00 | 0.06 | 0.03 | 60 | 1012.1 |
| 20260503201016 | 63 | 290 | 2.0 | 5.0 | 0.00 | 0.06 | 0.03 | 61 | 1011.8 |
| 20260503200016 | 63 | 272 | 2.0 | 5.0 | 0.00 | 0.06 | 0.03 | 61 | 1011.7 |
| 20260503195016 | 63 | 258 | 2.0 | 4.0 | 0.00 | 0.06 | 0.03 | 61 | 1011.6 |
| 20260503194016 | 64 | 265 | 2.0 | 5.0 | 0.00 | 0.06 | 0.03 | 60 | 1011.5 |
| 20260503193036 | 64 | 277 | 3.0 | 7.0 | 0.00 | 0.06 | 0.03 | 59 | 1011.3 |
| 20260503192036 | 64 | 281 | 3.0 | 8.0 | 0.00 | 0.06 | 0.03 | 58 | 1011.4 |
| 20260503191016 | 64 | 268 | 3.0 | 5.0 | 0.00 | 0.06 | 0.03 | 56 | 1011.2 |
| 20260503190016 | 65 | 265 | 5.0 | 8.0 | 0.00 | 0.06 | 0.03 | 56 | 1011.1 |
| 20260503185016 | 65 | 270 | 3.0 | 8.0 | 0.00 | 0.06 | 0.03 | 57 | 1011.0 |
| 20260503184036 | 65 | 262 | 5.0 | 10.0 | 0.00 | 0.06 | 0.03 | 55 | 1011.1 |
| 20260503183016 | 66 | 268 | 5.0 | 8.0 | 0.00 | 0.06 | 0.03 | 54 | 1011.1 |
| 20260503182016 | 66 | 275 | 6.0 | 11.0 | 0.00 | 0.06 | 0.03 | 55 | 1011.0 |
| 20260503181016 | 66 | 273 | 6.0 | 14.0 | 0.00 | 0.06 | 0.03 | 55 | 1011.1 |
| 20260503180016 | 66 | 271 | 6.0 | 12.0 | 0.00 | 0.06 | 0.03 | 54 | 1011.0 |
| 20260503175016 | 67 | 269 | 7.0 | 13.0 | 0.00 | 0.06 | 0.03 | 54 | 1011.1 |
| 20260503174036 | 67 | 280 | 5.0 | 13.0 | 0.00 | 0.06 | 0.03 | 54 | 1011.0 |
| 20260503173016 | 67 | 276 | 6.0 | 13.0 | 0.00 | 0.06 | 0.03 | 53 | 1011.0 |
| 20260503172016 | 67 | 271 | 6.0 | 11.0 | 0.00 | 0.06 | 0.03 | 53 | 1010.9 |
| 20260503171036 | 67 | 273 | 6.0 | 12.0 | 0.00 | 0.06 | 0.03 | 54 | 1011.0 |
| 20260503131016 | 69 | 272 | 7.0 | 15.0 | 0.00 | 0.06 | 0.03 | 53 | 1012.2 |
| 20260503081016 | 60 | 259 | 1.0 | 5.0 | 0.00 | 0.06 | 0.03 | 91 | 1014.2 |
| 20260503072016 | 57 | 264 | 2.0 | 4.0 | 0.00 | 0.09 | 0.03 | 93 | 1013.7 |
| 20260503071017 | 57 | 262 | 1.0 | 3.0 | 0.02 | 0.09 | 0.03 | 93 | 1013.8 |
| 20260503055036 | 57 | 197 | 1.0 | 2.0 | 0.00 | 0.06 | 0.00 | 90 | 1013.2 |
| 20260503054016 | 57 | 111 | 0.0 | 2.0 | 0.00 | 0.06 | 0.00 | 90 | 1013.2 |
| 20260503053016 | 56 | 0.0 | 1.0 | 0.00 | 0.06 | 0.00 | 90 | 1013.2 |